Bucharest, Romania

4:12 PM EET on February 22, 2017 (GMT +0200)
Bucharest

Weather History for 15420 - April, 2010

Change the Weather History Date:

Thursday, April 29, 2010

  Actual Average Record
Temperature  
Mean Temperature 55 °F -  
Max Temperature 71 °F 74 °F - ()
Min Temperature 39 °F 51 °F - ()
Degree Days  
Heating Degree Days 10    
Growing Degree Days 5 (Base 50)    
Moisture  
Dew Point 44 °F    
Average Humidity 62    
Maximum Humidity 100    
Minimum Humidity 19    
Precipitation  
Precipitation 0.00 in 0.09 in - ()
Sea Level Pressure  
Sea Level Pressure 30.20 in    
Wind  
Wind Speed 2 mph ()    
Max Wind Speed 9 mph    
Max Gust Speed -    
Visibility 6.1 miles    
Events      
T = Trace of Precipitation, MM = Missing Value Source: Averaged Metar Reports

Daily Weather History Graph

Daily Weather History Graph

Search for Another Location

Airport or City:

Trip Planner

Search our weather history database for the weather conditions in past years. The results will help you decide how hot, cold, wet, or windy it might be!

Date:

Astronomy

Apr. 29, 2010 Rise Set
Actual Time 6:09 AM EEST 8:17 PM EEST
Civil Twilight 5:37 AM EEST 8:49 PM EEST
Nautical Twilight 4:58 AM EEST 9:28 PM EEST
Astronomical Twilight 4:15 AM EEST 10:12 PM EEST
Moon 9:53 PM EEST (4/29) 6:09 AM EEST (4/29)
Length of Visible Light 15h 11m
Length of Day
14h 07m
Full, 99% of the Moon is Illuminated
Apr 29
Full
May 6
Last Quarter
May 14
New
May 21
First Quarter
May 28
Full

Hourly Weather History & Observations

Time (EEST) Temp. Dew Point Humidity Pressure Visibility Wind Dir Wind Speed Gust Speed Precip Events Conditions
12:00 AM 41 °F 40 °F 97% 30.25 in 6 mi Calm Calm - -  
12:00 AM 51.8 °F 42.8 °F 71% 30.21 in - Calm Calm - N/A   Clear
12:30 AM 48.2 °F 42.8 °F 82% 30.21 in - East 3.5 mph - N/A   Clear
1:00 AM 41 °F 40 °F 97% 30.24 in 6 mi North 2.2 mph - -  
1:00 AM 50.0 °F 42.8 °F 76% 30.21 in - Calm Calm - N/A   Clear
1:30 AM 50.0 °F 42.8 °F 76% 30.21 in - NE 3.5 mph - N/A   Clear
2:00 AM 41 °F 41 °F 99% 30.26 in 6 mi NE 2.2 mph - -  
2:00 AM 48.2 °F 42.8 °F 82% 30.21 in - East 3.5 mph - N/A   Clear
2:30 AM 50.0 °F 44.6 °F 82% 30.21 in - East 1.2 mph - N/A   Clear
3:00 AM 40 °F 40 °F 100% 30.26 in 6 mi ENE 2.2 mph - -  
4:00 AM 40 °F 40 °F 100% 30.26 in 6 mi NNE 2.2 mph - -   Partly Cloudy
4:00 AM 48.2 °F 44.6 °F 87% 30.21 in - Calm Calm - N/A   Clear
4:30 AM 50.0 °F 44.6 °F 82% 30.21 in - Calm Calm - N/A   Clear
5:00 AM 42 °F 42 °F 99% 30.25 in 6 mi Calm Calm - -   Partly Cloudy
5:00 AM 48.2 °F 44.6 °F 87% 30.21 in 6.2 mi Calm Calm - N/A   Partly Cloudy
5:30 AM 50.0 °F 44.6 °F 82% 30.21 in 6.2 mi Calm Calm - N/A   Scattered Clouds
6:00 AM 43 °F 43 °F 100% 30.25 in 6 mi NE 2.2 mph - -   Mostly Cloudy
6:00 AM 50.0 °F 44.6 °F 82% 30.21 in 6.2 mi Calm Calm - N/A   Scattered Clouds
6:30 AM 50.0 °F 44.6 °F 82% 30.21 in 6.2 mi Calm Calm - N/A   Scattered Clouds
7:00 AM 47 °F 47 °F 99% 30.25 in 6 mi NE 2.2 mph - -   Overcast
7:00 AM 50.0 °F 46.4 °F 87% 30.21 in 6.2 mi East 3.5 mph - N/A   Scattered Clouds
7:30 AM 51.8 °F 46.4 °F 82% 30.21 in - East 2.3 mph - N/A   Clear
8:00 AM 50 °F 42 °F 66% 30.26 in 6 mi ENE 2.2 mph - -   Partly Cloudy
8:00 AM 51.8 °F 46.4 °F 82% 30.21 in - East 2.3 mph - N/A   Clear
8:30 AM 53.6 °F 48.2 °F 82% 30.21 in - Variable 2.3 mph - N/A   Clear
9:00 AM 53 °F 43 °F 59% 30.26 in 6 mi NNE 2.2 mph - -   Partly Cloudy
9:00 AM 53.6 °F 48.2 °F 82% 30.21 in - East 3.5 mph - N/A   Clear
9:30 AM 55.4 °F 48.2 °F 77% 30.24 in - Variable 2.3 mph - N/A   Clear
10:00 AM 56 °F 42 °F 48% 30.27 in 6 mi East 4.5 mph - -   Partly Cloudy
10:00 AM 57.2 °F 48.2 °F 72% 30.24 in - Variable 3.5 mph - N/A   Clear
10:30 AM 57.2 °F 50.0 °F 77% 30.24 in - East 4.6 mph - N/A   Clear
11:00 AM 59 °F 42 °F 43% 30.28 in 6 mi ENE 4.5 mph - -   Partly Cloudy
11:00 AM 60.8 °F 50.0 °F 68% 30.24 in - East 9.2 mph - N/A   Clear
11:30 AM 62.6 °F 51.8 °F 68% 30.24 in - East 6.9 mph - N/A   Clear
12:00 PM 63 °F 42 °F 34% 30.27 in 6 mi ENE 2.2 mph - -   Partly Cloudy
12:00 PM 62.6 °F 46.4 °F 55% 30.24 in 6.2 mi East 8.1 mph - N/A   Partly Cloudy
12:30 PM 64.4 °F 44.6 °F 49% 30.21 in 6.2 mi East 6.9 mph - N/A   Partly Cloudy
1:00 PM 64 °F 38 °F 27% 30.26 in 6 mi East 4.5 mph - -   Scattered Clouds
1:00 PM 66.2 °F 46.4 °F 49% 30.21 in 6.2 mi East 6.9 mph - N/A   Scattered Clouds
1:30 PM 66.2 °F 44.6 °F 46% 30.21 in 6.2 mi East 4.6 mph - N/A   Scattered Clouds
2:00 PM 67 °F 38 °F 23% 30.24 in 6 mi East 4.5 mph - -   Partly Cloudy
2:00 PM 66.2 °F 44.6 °F 46% 30.21 in 6.2 mi Variable 3.5 mph - N/A   Scattered Clouds
2:30 PM 68.0 °F 48.2 °F 49% 30.18 in 6.2 mi Variable 6.9 mph - N/A   Scattered Clouds
3:00 PM 66 °F 37 °F 23% 30.23 in 6 mi East 2.2 mph - -   Partly Cloudy
3:00 PM 68.0 °F 44.6 °F 43% 30.18 in - Variable 5.8 mph - N/A   Clear
3:30 PM 68.0 °F 42.8 °F 40% 30.18 in - SW 3.5 mph - N/A   Clear
4:00 PM 65 °F 36 °F 23% 30.21 in 6 mi SE 2.2 mph - -   Partly Cloudy
4:00 PM 68.0 °F 44.6 °F 43% 30.15 in - East 3.5 mph - N/A   Clear
4:30 PM 68.0 °F 46.4 °F 46% 30.15 in - WSW 4.6 mph - N/A   Clear
5:00 PM 71 °F 37 °F 19% 30.18 in 6 mi NNW 2.2 mph - -   Partly Cloudy
5:00 PM 66.2 °F 44.6 °F 46% 30.15 in - WSW 2.3 mph - N/A   Clear
5:30 PM 69.8 °F 42.8 °F 38% 30.12 in - WNW 5.8 mph - N/A   Clear
6:00 PM 67 °F 36 °F 20% 30.18 in 6 mi WSW 6.7 mph - -   Scattered Clouds
6:00 PM 68.0 °F 42.8 °F 40% 30.12 in - Variable 3.5 mph - N/A   Clear
6:30 PM 69.8 °F 42.8 °F 38% 30.12 in - NW 3.5 mph - N/A   Clear
7:00 PM 68 °F 36 °F 20% 30.16 in 6 mi West 2.2 mph - -   Scattered Clouds
7:00 PM 69.8 °F 44.6 °F 40% 30.12 in - Variable 2.3 mph - N/A   Clear
7:30 PM 68.0 °F 44.6 °F 43% 30.12 in - NW 3.5 mph - N/A   Clear
8:00 PM 64 °F 36 °F 24% 30.15 in 6 mi WNW 4.5 mph - -   Scattered Clouds
8:00 PM 66.2 °F 44.6 °F 46% 30.12 in - WNW 3.5 mph - N/A   Clear
8:30 PM 64.4 °F 46.4 °F 52% 30.12 in - West 3.5 mph - N/A   Clear
9:00 PM 58 °F 39 °F 37% 30.16 in 6 mi WSW 2.2 mph - -   Scattered Clouds
9:00 PM 64.4 °F 46.4 °F 52% 30.12 in - West 3.5 mph - N/A   Clear
9:30 PM 64.4 °F 46.4 °F 52% 30.12 in - WSW 3.5 mph - N/A   Clear
10:00 PM 50 °F 45 °F 76% 30.17 in 6 mi Calm Calm - -   Mostly Cloudy
10:00 PM 62.6 °F 46.4 °F 55% 30.12 in - Variable 2.3 mph - N/A   Clear
10:30 PM 62.6 °F 46.4 °F 55% 30.12 in - Calm Calm - N/A   Clear
11:00 PM 51 °F 48 °F 85% 30.16 in 6 mi Calm Calm - -   Mostly Cloudy
11:00 PM 60.8 °F 48.2 °F 63% 30.12 in - Calm Calm - N/A   Clear
11:30 PM 60.8 °F 48.2 °F 63% 30.12 in - Calm Calm - N/A   Clear